Location: Newark
(49.8753°N, 23.0797°E)
Time: 03:35:22
(UTC+00:00)

X-37B - Pass Details

Date: 23 June 2021
Orbit: 383 x 392 km, 45.0° (Epoch: 01 July)

Event Time Altitude Azimuth Distance (km) Brightness Sun altitude
Exits shadow 00:49:35 11° 175° (S) 1,326 2.8 -10.4°
Drops below altitude 10° 00:49:55 10° 170° (S) 1,402 3.0 -10.4°
Sets 00:52:37 0° 145° (SE) 2,254 4.2 -10.2°
